Location: Nassau
(25.0830°N, 77.3500°W)
Time: 07:28:10
(UTC-04:00)

ISS - All Passes

Search period start: 29 July 2015 00:00
Search period end: 08 August 2015 00:00
Orbit: 401 x 403 km, 51.6° (Epoch: 29 July)

Date Brightness Start Highest point End Pass type
(mag) Time Alt. Az. Time Alt. Az. Time Alt. Az.
29 Jul - 06:35:51 10° NW 06:39:05 67° NE 06:42:19 10° SE daylight
29 Jul - 21:32:34 10° SW 21:35:47 65° NW 21:39:01 10° NE visible
30 Jul - 05:43:16 10° NNW 05:46:05 27° NE 05:48:55 10° ESE visible
30 Jul - 07:20:31 10° W 07:22:21 14° SW 07:24:04 10° SSW daylight
30 Jul - 20:39:46 10° SSW 20:42:52 44° SE 20:45:59 10° NE visible
30 Jul - 22:18:44 10° NW 22:19:31 10° NW 22:20:08 10° NNW visible
31 Jul - 04:51:23 10° N 04:52:57 13° NE 04:54:37 10° ENE visible
31 Jul - 06:26:30 10° WNW 06:29:28 33° SW 06:32:26 10° SSE daylight
31 Jul - 19:47:45 10° S 19:49:59 18° SE 19:52:19 10° E daylight
31 Jul - 21:23:45 10° W 21:26:20 21° NW 21:28:52 10° N visible
01 Aug - 05:33:19 10° NW 05:36:34 88° NE 05:39:49 10° SE visible
01 Aug - 20:30:07 10° SW 20:33:16 49° NW 20:36:26 10° NNE visible
02 Aug - 04:40:36 10° NNW 04:43:35 33° NE 04:46:34 10° ESE visible
02 Aug - 06:18:48 10° WSW 06:19:48 11° SW 06:20:37 10° SW daylight
02 Aug - 19:37:08 10° SSW 19:40:19 59° SE 19:43:31 10° NE daylight
03 Aug - 03:48:25 10° N 03:50:27 16° NE 03:52:34 10° E night (unlit)
03 Aug - 05:24:07 10° WNW 05:26:55 26° SW 05:29:39 10° S visible
03 Aug - 18:44:50 10° S 18:47:25 23° SE 18:50:04 10° ENE daylight
03 Aug - 20:21:31 10° W 20:23:49 17° NW 20:26:04 10° N visible
04 Aug - 04:30:46 10° NW 04:34:00 70° SW 04:37:14 10° SE night (unlit)
04 Aug - 19:27:39 10° WSW 19:30:43 38° NW 19:33:47 10° NNE daylight
05 Aug - 03:37:54 10° NNW 03:41:01 42° NE 03:44:08 10° ESE night (unlit)
05 Aug - 18:34:29 10° SW 18:37:43 79° SE 18:40:58 10° NE daylight
06 Aug - 02:45:32 10° N 02:47:55 19° NE 02:50:22 10° E night (unlit)
06 Aug - 04:21:46 10° WNW 04:24:18 20° SW 04:26:46 10° S night (unlit)
06 Aug - 17:41:57 10° S 17:44:47 29° SE 17:47:40 10° ENE daylight
06 Aug - 19:19:21 10° WNW 19:21:16 14° NW 19:23:07 10° N daylight
07 Aug - 03:28:12 10° NW 03:31:23 52° SW 03:34:33 10° SSE night (unlit)
07 Aug - 16:50:37 10° SSE 16:51:53 12° SE 16:53:18 10° E daylight
07 Aug - 18:25:12 10° WSW 18:28:07 30° NW 18:31:02 10° NNE daylight
